Hourly Data Report for October 02, 2017

All times are specified in Local Standard Time (LST). Add 1 hour to adjust for Daylight Saving Time where and when it is observed.

ARVIAT A
NUNAVUT

61°05'38.000" N
94°04'18.000" W
10.40 m
2300427
71174
YEK

Related Data

No related data is available for this station

Download Data

Hourly Data (October 2017)
Hourly Data Report for October 2, 2017
Temp Definition
°C
Dew Point Temp Definition
°C
Rel Hum Definition
%
Wind Dir Definition
10's deg

Wind Spd Definition
km/h
Visibility Definition
km
Stn Press Definition
kPa
Hmdx Definition


Wind Chill Definition


Weather Definition


TIME
00:00 Legend Double Dagger 5.5 4.2 91 16 39 11.3 101.26     LegendNANA
01:00 Legend Double Dagger 5.5 4.3 92 17 35 9.7 101.20     Fog
02:00 Legend Double Dagger 5.5 4.8 95 17 32 8.1 101.14     Fog
03:00 Legend Double Dagger 5.4 4.8 96 16 26 8.1 101.04     Fog
04:00 Legend Double Dagger 5.5 4.9 96 17 26 8.1 100.96     Fog
05:00 Legend Double Dagger 5.6 5.0 96 17 24 8.1 100.92     Rain,Fog
06:00 Legend Double Dagger 5.5 5.1 97 17 15 6.4 100.86     Fog
07:00 Legend Double Dagger 5.4 5.1 98 16 11 4.8 100.80     Fog
08:00 Legend Double Dagger 5.3 5.0 98 14 9 4.8 100.74     Fog
09:00 Legend Double Dagger 5.5 5.2 98   0 4.8 100.71     Fog
10:00 Legend Double Dagger 5.4 5.3 99 33 8 1.6 100.69     Rain,Fog
11:00 Legend Double Dagger 5.3 5.3 100 33 17 4.8 100.67     Rain,Fog
12:00 Legend Double Dagger 5.0 4.7 98 34 39 4.8 100.65     Rain,Fog
13:00 Legend Double Dagger 3.0 2.4 96 35 45 4.8 100.72     Rain,Fog
14:00 Legend Double Dagger 2.7 1.8 94 35 48 16.1 100.79     LegendNANA
15:00 Legend Double Dagger 2.2 0.7 90 35 46 16.1 100.85     LegendNANA
16:00 Legend Double Dagger 1.9 -0.1 86 35 39 16.1 100.90     LegendNANA
17:00 Legend Double Dagger 2.1 -0.4 84 34 46 16.1 100.97     LegendNANA
18:00 Legend Double Dagger 2.3 -0.2 84 35 39 16.1 101.03     LegendNANA
19:00 Legend Double Dagger 1.7 -0.9 83 34 35 16.1 101.08     LegendNANA
20:00 Legend Double Dagger 1.0 -1.1 86 33 24 16.1 101.14     LegendNANA
21:00 Legend Double Dagger 0.8 -1.1 87 32 18 16.1 101.12     LegendNANA
22:00 Legend Double Dagger 0.3 -1.5 88 30 21 16.1 101.14     LegendNANA
23:00 Legend Double Dagger 0.6 -1.2 88 30 26 16.1 101.13     LegendNANA

Notes on Data Quality.

Legend

  • E = Estimated
  • M = Missing
  • NA = Not Available
  • ‡ = Partner data that is not subject to review by the National Climate Archives
Date modified: